Find Kosmos-2026

NORAD ID: 20045 Int'l Des: 1989-042 Owner: VMF Country: SU operational
LEOCIRCULARPOLAR

当前视图

正在加载3D地球...

关于 Kosmos-2026

正在加载描述...

即将过境

Passes for default location (London). Set your location on the main map for personalized predictions.

高度历史

Loading altitude history...

两行轨道根数

1 20045U 89042A 26150.73063778 .00000052 00000-0 37142-4 0 9997
2 20045 82.9416 61.1447 0040204 12.5020 6.4985 13.76265127856894
Epoch: May 30, 2026 • Age: 13 hours

当前状态

高度 998.4 km
速度 7.35 km/s
星下点 53.25°N, 111.51°W
发射日期 Jun 7, 1989
运行时间 36.9 years
类型 other

技术详情

分类 Payload
质量 800.00 kg
干质量 800.00 kg
总质量 800.00 kg
长度 5.00 m
直径 2.10 m
跨度 17.00 m
形状 Cyl + Ant
制造商 OAZ
平台类型 KAUR-1 11F627
阶段状态 In Orbit
所有者/国家 VMF/SU

Most Searched